Date,TemperatureHighF,TemperatureAvgF,TemperatureLowF,DewpointHighF,DewpointAvgF,DewpointLowF,HumidityHigh,HumidityAvg,HumidityLow,PressureMaxIn,PressureMinIn,WindSpeedMaxMPH,WindSpeedAvgMPH,GustSpeedMaxMPH,PrecipitationSumIn
2013-12-1,48,37,28,10,4,1,35,25,19,29.18,28.94,7,0,7,0.00
2013-12-2,50,37,34,20,7,4,41,28,21,28.97,28.61,11,0,11,0.00
2013-12-3,48,42,37,34,23,16,58,47,40,28.70,28.59,4,0,4,0.00
2013-12-4,43,35,21,31,16,-10,62,47,25,28.94,28.56,12,1,12,0.00
2013-12-5,21,16,10,-9,-13,-17,27,26,25,29.41,28.94,0,0,0,0.00
2013-12-6,18,9,3,-12,-18,-23,27,27,26,29.68,29.41,0,0,0,0.00
2013-12-7,20,8,-3,-10,-19,-28,27,27,25,29.77,29.53,0,0,0,0.00
2013-12-8,20,17,12,-1,-8,-16,41,32,26,29.59,29.03,0,0,0,0.00
2013-12-9,18,10,1,-2,-11,-20,40,37,37,29.32,29.06,8,0,8,0.00
2013-12-10,26,15,1,-6,-12,-19,37,29,24,29.26,29.06,17,4,17,0.00
2013-12-11,21,14,2,-9,-13,-21,32,28,25,29.65,29.23,14,1,14,0.00
2013-12-12,34,19,3,0,-10,-20,32,27,22,29.56,29.18,12,0,12,0.00
2013-12-13,37,27,18,5,-2,-9,33,28,22,29.21,29.00,10,0,10,0.00
2013-12-14,26,21,15,4,-3,-12,43,34,25,29.21,29.06,15,2,15,0.00
2013-12-15,20,16,11,-9,-12,-17,34,27,25,29.18,29.09,13,0,13,0.00
2013-12-16,27,20,14,1,-4,-11,37,34,30,29.18,29.03,5,0,8,0.00
2013-12-17,41,31,24,6,0,-8,37,27,21,29.26,29.12,18,2,18,0.00
2013-12-18,53,39,23,11,2,-8,25,21,18,29.23,28.79,17,2,17,0.00
2013-12-19,44,36,32,14,9,3,47,33,23,28.91,28.79,11,1,11,0.00
2013-12-20,32,27,23,16,10,4,54,48,42,28.94,28.79,14,1,14,0.00
2013-12-21,28,25,22,14,4,-1,55,41,32,28.94,28.76,14,1,14,0.00
2013-12-22,28,21,7,14,2,-14,56,44,33,29.32,28.76,14,2,14,0.00
2013-12-23,12,3,-4,-10,-18,-25,36,36,36,29.59,29.32,10,1,10,0.00
2013-12-24,17,-3,-11,-2,-23,-30,43,36,26,29.59,29.23,11,0,11,0.00
2013-12-25,34,25,17,6,1,-8,46,35,23,29.26,29.18,11,1,11,0.00
2013-12-26,41,24,19,4,-5,-9,34,27,21,29.26,29.15,11,0,11,0.08
2013-12-27,50,36,22,9,3,-5,40,26,19,29.29,29.12,12,0,12,0.00
2013-12-28,52,42,32,11,5,1,34,21,18,29.15,28.85,15,2,15,0.00
2013-12-29,37,12,0,6,-15,-26,35,28,26,29.35,28.91,18,4,19,0.00
2013-12-30,17,7,-2,-6,-18,-28,35,29,27,29.35,29.18,3,0,3,0.00
2013-12-31,19,10,6,-9,-14,-17,35,31,25,29.35,29.21,13,1,13,0.00